User: anonymous   Login
Location: Trondheim
(63.4170°N, 10.4170°E)
Time: 17:13:11
(UTC+02:00)
Language:

Iridium 82 - Orbit

View from above orbital plane
View from above orbital plane
View from above satellite
View from above satellite

Ground track
Ground track

The orbit data is extracted from the following two-line orbital elements,

1 25467U 98051A   15144.48767663  .00000020  00000-0 -40284-7 0  9997
2 25467 086.3949 337.5514 0002021 100.2611 259.8813 14.34217976878440
Epoch (UTC): 24 May 2015 11:42:15
Eccentricity: 0.0002021
inclination: 86.3949°
perigee height: 776 km
apogee height: 779 km
right ascension of ascending node: 337.5514°
argument of perigee: 100.2611°
revolutions per day: 14.34217976
mean anomaly at epoch: 259.8813°
orbit number at epoch: 87844

The dashed part of the orbit path shows where the satellite is in the earth's shadow,  

DLR